| time (UTC) | temp C | wind direction | speed KPH | gust KPH | rain 1hr cm | rain 24hr cm | rain mn cm | humidity % | barometer mb |
| 20260505101553 | 11 | 178 | 1.6 | 4.8 | 0.00 | 0.00 | 0.00 | 89 | 1014.1 |
| 20260505100054 | 11 | 0 | 0.0 | 1.6 | 0.00 | 0.00 | 0.00 | 90 | 1014.0 |
| 20260505094556 | 11 | 0 | 0.0 | 1.6 | 0.00 | 0.00 | 0.00 | 90 | 1013.9 |
| 20260505093053 | 10 | 0 | 0.0 | 4.8 | 0.00 | 0.00 | 0.00 | 90 | 1013.9 |
| 20260505091552 | 10 | 0 | 0.0 | 1.6 | 0.00 | 0.00 | 0.00 | 90 | 1013.9 |
| 20260505090058 | 10 | 0 | 0.0 | 3.2 | 0.00 | 0.00 | 0.00 | 90 | 1013.7 |
| 20260505084555 | 11 | 0 | 0.0 | 0.0 | 0.00 | 0.00 | 0.00 | 89 | 1013.5 |
| 20260505083102 | 11 | 0 | 0.0 | 3.2 | 0.00 | 0.00 | 0.00 | 88 | 1013.5 |
| 20260505081557 | 11 | 0 | 0.0 | 1.6 | 0.00 | 0.00 | 0.00 | 87 | 1013.4 |
| 20260505080056 | 11 | 0 | 0.0 | 0.0 | 0.00 | 0.00 | 0.00 | 88 | 1013.3 |
| 20260505074552 | 11 | 0 | 0.0 | 0.0 | 0.00 | 0.00 | 0.00 | 87 | 1013.2 |
| 20260505073108 | 11 | 0 | 0.0 | 3.2 | 0.00 | 0.00 | 0.00 | 86 | 1013.0 |
| 20260505071605 | 11 | 0 | 0.0 | 1.6 | 0.00 | 0.00 | 0.00 | 85 | 1012.9 |
| 20260505070055 | 12 | 0 | 0.0 | 0.0 | 0.00 | 0.00 | 0.00 | 84 | 1012.7 |
| 20260505064559 | 12 | 225 | 0.0 | 3.2 | 0.00 | 0.00 | 0.00 | 84 | 1012.5 |
| 20260505063055 | 12 | 0 | 0.0 | 4.8 | 0.00 | 0.00 | 0.00 | 83 | 1012.4 |
| 20260505061604 | 12 | 0 | 0.0 | 4.8 | 0.00 | 0.00 | 0.00 | 82 | 1012.1 |
| 20260505054601 | 13 | 202 | 1.6 | 6.4 | 0.00 | 0.00 | 0.00 | 81 | 1012.1 |
| 20260505053112 | 13 | 0 | 0.0 | 3.2 | 0.00 | 0.00 | 0.00 | 80 | 1012.0 |
| 20260505051556 | 14 | 196 | 0.0 | 4.8 | 0.00 | 0.00 | 0.00 | 79 | 1011.9 |
| 20260505041612 | 17 | 0 | 1.6 | 9.7 | 0.00 | 0.00 | 0.00 | 73 | 1011.2 |
| 20260505040057 | 18 | 0 | 1.6 | 8.0 | 0.00 | 0.00 | 0.00 | 70 | 1010.9 |
| 20260505034549 | 19 | 267 | 1.6 | 9.7 | 0.00 | 0.00 | 0.00 | 63 | 1010.8 |
| 20260505033053 | 20 | 0 | 0.0 | 11.3 | 0.00 | 0.00 | 0.00 | 63 | 1010.4 |
| 20260505031600 | 21 | 250 | 0.0 | 6.4 | 0.00 | 0.00 | 0.00 | 64 | 1010.2 |
| 20260505030054 | 21 | 258 | 0.0 | 4.8 | 0.00 | 0.00 | 0.00 | 63 | 1010.1 |
| 20260505024555 | 22 | 236 | 3.2 | 9.7 | 0.00 | 0.00 | 0.00 | 62 | 1009.9 |
| 20260505023055 | 22 | 192 | 1.6 | 9.7 | 0.00 | 0.00 | 0.00 | 63 | 1009.7 |
| 20260505021555 | 22 | 0 | 1.6 | 11.3 | 0.00 | 0.00 | 0.00 | 62 | 1009.6 |
| 20260505020053 | 23 | 192 | 1.6 | 11.3 | 0.00 | 0.00 | 0.00 | 61 | 1009.6 |
| 20260505014553 | 23 | 276 | 1.6 | 14.5 | 0.00 | 0.00 | 0.00 | 61 | 1009.5 |
| 20260505013056 | 23 | 170 | 4.8 | 14.5 | 0.00 | 0.00 | 0.00 | 60 | 1009.5 |
| 20260505011551 | 23 | 232 | 6.4 | 16.1 | 0.00 | 0.00 | 0.00 | 60 | 1009.6 |
| 20260505010054 | 23 | 173 | 3.2 | 16.1 | 0.00 | 0.00 | 0.00 | 60 | 1009.7 |
| 20260505004552 | 23 | 184 | 1.6 | 11.3 | 0.00 | 0.00 | 0.00 | 61 | 1009.8 |
| 20260505003059 | 23 | 236 | 6.4 | 16.1 | 0.00 | 0.00 | 0.00 | 61 | 1009.8 |
| 20260505001559 | 23 | 194 | 6.4 | 17.7 | 0.00 | 0.00 | 0.00 | 63 | 1009.9 |
| 20260505000107 | 23 | 231 | 8.0 | 22.5 | 0.00 | 0.00 | 0.00 | 62 | 1010.0 |
| 20260504234624 | 23 | 183 | 8.0 | 19.3 | 0.00 | 0.00 | 0.00 | 61 | 1009.9 |
| 20260504233058 | 24 | 147 | 4.8 | 12.9 | 0.00 | 0.00 | 0.00 | 61 | 1010.1 |
| 20260504231602 | 23 | 231 | 4.8 | 17.7 | 0.00 | 0.00 | 0.00 | 62 | 1010.2 |
| 20260504230057 | 23 | 216 | 6.4 | 14.5 | 0.00 | 0.00 | 0.00 | 60 | 1010.3 |
| 20260504224549 | 23 | 184 | 3.2 | 16.1 | 0.00 | 0.00 | 0.00 | 61 | 1010.6 |
| 20260504223053 | 23 | 163 | 3.2 | 14.5 | 0.00 | 0.00 | 0.00 | 61 | 1010.8 |
| 20260504221600 | 22 | 157 | 4.8 | 19.3 | 0.00 | 0.00 | 0.00 | 63 | 1011.0 |
| 20260504220056 | 22 | 166 | 4.8 | 16.1 | 0.00 | 0.00 | 0.00 | 63 | 1011.1 |
| 20260504214554 | 22 | 250 | 8.0 | 16.1 | 0.00 | 0.00 | 0.00 | 64 | 1011.2 |
| 20260504213054 | 22 | 188 | 1.6 | 16.1 | 0.00 | 0.00 | 0.00 | 64 | 1011.4 |
| 20260504211553 | 21 | 227 | 1.6 | 9.7 | 0.00 | 0.00 | 0.00 | 64 | 1011.6 |
| 20260504210109 | 21 | 256 | 3.2 | 16.1 | 0.00 | 0.00 | 0.00 | 64 | 1012.0 |
| 20260504204601 | 21 | 169 | 1.6 | 11.3 | 0.00 | 0.00 | 0.00 | 64 | 1012.1 |
| 20260504203053 | 20 | 199 | 3.2 | 12.9 | 0.00 | 0.00 | 0.00 | 66 | 1012.3 |
| 20260504201559 | 20 | 148 | 4.8 | 11.3 | 0.00 | 0.00 | 0.00 | 66 | 1012.5 |
| 20260504200100 | 19 | 52 | 4.8 | 14.5 | 0.00 | 0.00 | 0.00 | 68 | 1012.6 |
| 20260504194609 | 18 | 209 | 1.6 | 9.7 | 0.00 | 0.00 | 0.00 | 69 | 1012.7 |
| 20260504193058 | 18 | 169 | 3.2 | 11.3 | 0.00 | 0.00 | 0.00 | 70 | 1012.8 |
| 20260504191555 | 17 | 244 | 3.2 | 14.5 | 0.00 | 0.00 | 0.00 | 72 | 1013.0 |
| 20260504190125 | 16 | 225 | 3.2 | 12.9 | 0.00 | 0.00 | 0.00 | 75 | 1013.0 |
| 20260504184557 | 16 | 0 | 3.2 | 14.5 | 0.00 | 0.00 | 0.00 | 74 | 1013.3 |
| 20260504183054 | 16 | 183 | 3.2 | 11.3 | 0.00 | 0.00 | 0.00 | 74 | 1013.2 |
| 20260504181558 | 16 | 185 | 3.2 | 16.1 | 0.00 | 0.00 | 0.00 | 76 | 1013.2 |
| 20260504180201 | 16 | 174 | 1.6 | 16.1 | 0.00 | 0.00 | 0.00 | 75 | 1013.3 |
| 20260504174555 | 16 | 126 | 3.2 | 12.9 | 0.00 | 0.00 | 0.00 | 77 | 1013.3 |
| 20260504173108 | 15 | 160 | 1.6 | 14.5 | 0.00 | 0.00 | 0.00 | 80 | 1013.2 |
| 20260504171551 | 14 | 209 | 4.8 | 12.9 | 0.00 | 0.00 | 0.00 | 81 | 1013.1 |
| 20260504120112 | 12 | 0 | 4.8 | 16.1 | 0.00 | 0.00 | 0.00 | 84 | 1010.2 |